IK8WEQ Weather Reports


time (UTC)temp
C
wind
direction
speed
KPH
gust
KPH
rain 1hr
cm
rain 24hr
cm
rain mn
cm
humidity
%
barometer
mb
20260507122923 21 261 0.0 0.0 0.00 0.00 0.00 100 1013.4
20260507122456 21 267 0.0 0.0 0.00 0.00 0.00 100 1013.3
20260507121933 22 260 0.0 0.0 0.00 0.00 0.00 100 1013.4
20260507121427 22 255 4.8 0.0 0.00 0.00 0.00 100 1013.5
20260507120939 22 254 0.0 0.0 0.00 0.00 0.00 100 1013.4
20260507120428 22 253 0.0 0.0 0.00 0.00 0.00 100 1013.3
20260507115934 22 260 0.0 0.0 0.00 0.00 0.00 100 1013.7
20260507115424 22 252 0.0 0.0 0.00 0.00 0.00 100 1013.7
20260507114934 22 232 0.0 0.0 0.00 0.00 0.00 100 1013.5
20260507114426 22 235 0.0 0.0 0.00 0.00 0.00 100 1013.5
20260507113950 22 232 0.0 0.0 0.00 0.00 0.00 100 1013.5
20260507113435 22 234 0.0 0.0 0.00 0.00 0.00 100 1013.5
20260507112920 22 232 0.0 0.0 0.00 0.00 0.00 100 1013.7
20260507112429 22 233 0.0 0.0 0.00 0.00 0.00 100 1013.7
20260507111922 22 236 0.0 0.0 0.00 0.00 0.00 100 1013.8
20260507111436 22 233 0.0 0.0 0.00 0.00 0.00 100 1013.8
20260507110946 22 236 1.6 0.0 0.00 0.00 0.00 100 1013.8
20260507110418 22 237 0.0 0.0 0.00 0.00 0.00 100 1013.9
20260507105930 22 231 0.0 0.0 0.00 0.00 0.00 100 1014.0
20260507105419 22 234 0.0 0.0 0.00 0.00 0.00 100 1014.1
20260507104929 22 238 0.0 0.0 0.00 0.00 0.00 100 1014.1
20260507104423 22 228 0.0 0.0 0.00 0.00 0.00 100 1014.2
20260507103923 22 187 0.0 0.0 0.00 0.00 0.00 100 1014.3
20260507103435 22 184 0.0 0.0 0.00 0.00 0.00 100 1014.4
20260507102951 22 303 1.6 0.0 0.00 0.00 0.00 100 1014.3
20260507102436 22 315 0.0 0.0 0.00 0.00 0.00 100 1014.4
20260507102017 21 310 3.2 0.0 0.00 0.00 0.00 100 1014.4
20260507101430 21 305 1.6 0.0 0.00 0.00 0.00 100 1014.6
20260507101002 21 311 8.0 0.0 0.00 0.00 0.00 100 1014.5
20260507100442 21 307 3.2 0.0 0.00 0.00 0.00 100 1014.5
20260507095928 21 308 3.2 0.0 0.00 0.00 0.00 100 1014.5
20260507095432 21 200 0.0 0.0 0.00 0.00 0.00 100 1014.4
20260507094923 21 208 8.0 0.0 0.00 0.00 0.00 100 1014.4
20260507094435 21 203 3.2 0.0 0.00 0.00 0.00 100 1014.3
20260507093927 21 207 4.8 0.0 0.00 0.00 0.00 100 1014.2
20260507093429 21 206 8.0 0.0 0.00 0.00 0.00 100 1014.2
20260507092935 21 204 6.4 0.0 0.00 0.00 0.00 100 1014.3
20260507092421 21 201 1.6 0.0 0.00 0.00 0.00 100 1014.2
20260507091921 21 208 8.0 0.0 0.00 0.00 0.00 100 1014.1
20260507091454 21 207 3.2 0.0 0.00 0.00 0.00 100 1014.0
20260507090941 21 215 4.8 0.0 0.00 0.00 0.00 100 1014.1
20260507090430 21 207 6.4 0.0 0.00 0.00 0.00 100 1014.0
20260507085936 21 203 3.2 0.0 0.00 0.00 0.00 100 1014.1
20260507085431 21 202 0.0 0.0 0.00 0.00 0.00 100 1014.2
20260507084923 21 205 3.2 0.0 0.00 0.00 0.00 100 1014.1
20260507084432 21 200 0.0 0.0 0.00 0.00 0.00 100 1014.2
20260507083923 21 205 3.2 0.0 0.00 0.00 0.00 100 1014.3
20260507083436 21 209 6.4 0.0 0.00 0.00 0.00 100 1014.2
20260507082931 21 240 6.4 0.0 0.00 0.00 0.00 100 1014.2
20260507082437 21 252 4.8 0.0 0.00 0.00 0.00 100 1014.3
20260507081934 21 244 0.0 0.0 0.00 0.00 0.00 100 1014.4
20260507081425 21 243 3.2 0.0 0.00 0.00 0.00 100 1014.4
20260507080955 21 249 0.0 0.0 0.00 0.00 0.00 100 1014.3
20260507080424 21 244 0.0 0.0 0.00 0.00 0.00 100 1014.4
20260507075934 21 248 3.2 0.0 0.00 0.00 0.00 100 1014.5
20260507075427 21 242 0.0 0.0 0.00 0.00 0.00 100 1014.4
20260507074922 21 245 0.0 0.0 0.00 0.00 0.00 100 1014.6
20260507074426 20 244 3.2 0.0 0.00 0.00 0.00 100 1014.7
20260507073920 20 243 4.8 0.0 0.00 0.00 0.00 100 1014.7
20260507073417 20 265 4.8 0.0 0.00 0.00 0.00 100 1014.8
20260507072930 20 37 0.0 0.0 0.00 0.00 0.00 100 1014.8
20260507072440 20 39 0.0 0.0 0.00 0.00 0.00 100 1014.7
20260507071929 20 34 0.0 0.0 0.00 0.00 0.00 100 1014.6
20260507071425 19 31 0.0 0.0 0.00 0.00 0.00 100 1014.6
20260507070955 19 29 0.0 0.0 0.00 0.00 0.00 100 1014.6
20260507070448 19 33 0.0 0.0 0.00 0.00 0.00 100 1014.5
20260507065925 19 32 0.0 0.0 0.00 0.00 0.00 100 1014.4
20260507065428 20 35 0.0 0.0 0.00 0.00 0.00 100 1014.4
20260507064942 20 33 0.0 0.0 0.00 0.00 0.00 100 1014.4
20260507064432 20 32 1.6 0.0 0.00 0.00 0.00 100 1014.4
20260507063938 19 37 0.0 0.0 0.00 0.00 0.00 100 1014.4
20260507063428 18 25 1.6 0.0 0.00 0.00 0.00 100 1014.5
20260507062942 19 31 3.2 0.0 0.00 0.00 0.00 100 1014.4
20260507062421 19 41 3.2 0.0 0.00 0.00 0.00 100 1014.2
20260507061937 19 34 3.2 0.0 0.00 0.00 0.00 100 1014.2
20260507061430 18 36 3.2 0.0 0.00 0.00 0.00 100 1014.3
20260507060939 18 30 6.4 0.0 0.00 0.00 0.00 100 1014.3
20260507060432 18 31 0.0 0.0 0.00 0.00 0.00 100 1014.3
20260507055927 18 29 3.2 0.0 0.00 0.00 0.00 100 1014.3
20260507055432 17 25 3.2 0.0 0.00 0.00 0.00 100 1014.5
20260507054925 17 35 3.2 0.0 0.00 0.00 0.00 100 1014.6
20260507054457 16 37 1.6 0.0 0.00 0.00 0.00 100 1014.7
20260507053948 16 54 3.2 0.0 0.00 0.00 0.00 100 1014.6
20260507053422 16 49 4.8 0.0 0.00 0.00 0.00 100 1014.6
20260507052953 16 36 3.2 0.0 0.00 0.00 0.00 100 1014.5
20260507052427 16 28 3.2 0.0 0.00 0.00 0.00 100 1014.5
20260507051922 16 36 4.8 0.0 0.00 0.00 0.00 100 1014.6
20260507051433 16 33 3.2 0.0 0.00 0.00 0.00 100 1014.4
20260507050940 16 36 0.0 0.0 0.00 0.00 0.00 100 1014.4
20260507050428 16 40 0.0 0.0 0.00 0.00 0.00 100 1014.4
20260507045940 16 34 0.0 0.0 0.00 0.00 0.00 100 1014.3
20260507045426 16 35 0.0 0.0 0.00 0.00 0.00 100 1014.3
20260507044921 16 37 0.0 0.0 0.00 0.00 0.00 100 1014.4
20260507044419 16 34 1.6 0.0 0.00 0.00 0.00 100 1014.3
20260507043922 16 38 3.2 0.0 0.00 0.00 0.00 100 1014.2
20260507043432 16 36 3.2 0.0 0.00 0.00 0.00 100 1014.1
20260507042921 16 38 1.6 0.0 0.00 0.00 0.00 100 1014.1
20260507042430 16 42 0.0 0.0 0.00 0.00 0.00 100 1014.2
20260507041921 16 23 4.8 0.0 0.00 0.00 0.00 100 1014.1
20260507041434 16 48 4.8 0.0 0.00 0.00 0.00 100 1014.1
20260507041001 16 45 4.8 0.0 0.00 0.00 0.00 100 1014.1
20260507040450 16 32 8.0 0.0 0.00 0.00 0.00 100 1014.2
20260507035938 16 42 4.8 0.0 0.00 0.00 0.00 100 1014.2
20260507035428 15 72 4.8 0.0 0.00 0.00 0.00 100 1014.2
20260507034922 16 48 1.6 0.0 0.00 0.00 0.00 100 1014.0
20260507034432 15 41 4.8 0.0 0.00 0.00 0.00 100 1014.0
20260507033928 15 32 1.6 0.0 0.00 0.00 0.00 100 1013.9
20260507033423 15 36 4.8 0.0 0.00 0.00 0.00 100 1014.0
20260507032937 15 41 4.8 0.0 0.00 0.00 0.00 100 1013.8
20260507032429 15 32 4.8 0.0 0.00 0.00 0.00 100 1013.9
20260507031945 16 40 3.2 0.0 0.00 0.00 0.00 100 1013.9
20260507031437 15 39 0.0 0.0 0.00 0.00 0.00 100 1013.8
20260507030941 15 35 3.2 0.0 0.00 0.00 0.00 100 1013.7
20260507030432 15 46 0.0 0.0 0.00 0.00 0.00 100 1013.5
20260507025921 16 38 4.8 0.0 0.00 0.00 0.00 100 1013.4
20260507025427 16 35 0.0 0.0 0.00 0.00 0.00 100 1013.4
20260507024956 16 259 0.0 0.0 0.00 0.00 0.00 100 1013.6
20260507024423 16 245 0.0 0.0 0.00 0.00 0.00 100 1013.5
20260507023951 16 243 0.0 0.0 0.00 0.00 0.00 100 1013.7
20260507023420 16 234 0.0 0.0 0.00 0.00 0.00 100 1013.7
20260507022930 16 237 0.0 0.0 0.00 0.00 0.00 100 1013.8
20260507022424 16 241 0.0 0.0 0.00 0.00 0.00 100 1013.9
20260507021939 16 232 0.0 0.0 0.00 0.00 0.00 100 1014.0
20260507021430 16 239 0.0 0.0 0.00 0.00 0.00 100 1014.0
20260507020939 16 234 0.0 0.0 0.00 0.00 0.00 100 1014.1
20260507020436 16 242 0.0 0.0 0.00 0.00 0.00 100 1014.0
20260507015939 16 242 0.0 0.0 0.00 0.00 0.00 100 1014.1
20260507015430 16 152 4.8 0.0 0.00 0.00 0.00 100 1014.0
20260507014921 16 149 3.2 0.0 0.00 0.00 0.00 100 1014.2
20260507014426 16 142 3.2 0.0 0.00 0.00 0.00 100 1014.3
20260507013934 16 39 1.6 0.0 0.00 0.00 0.00 100 1014.2
20260507013429 16 41 0.0 0.0 0.00 0.00 0.00 100 1014.2
20260507012921 17 45 0.0 0.0 0.00 0.00 0.00 100 1014.1
20260507012450 17 43 0.0 0.0 0.00 0.00 0.00 8 1014.3
20260507011920 17 39 0.0 0.0 0.00 0.00 0.00 19 1014.3
20260507011430 16 41 0.0 0.0 0.00 0.00 0.00 33 1014.3
20260507011002 16 42 0.0 0.0 0.00 0.00 0.00 31 1014.3
20260507010438 16 43 0.0 0.0 0.00 0.00 0.00 35 1014.2
20260507005931 16 39 0.0 0.0 0.00 0.00 0.00 33 1014.2
20260507005429 16 41 0.0 0.0 0.00 0.00 0.00 21 1014.2
20260507004925 16 44 0.0 0.0 0.00 0.00 0.00 6 1014.0
20260507004456 17 43 0.0 0.0 0.00 0.00 0.00 2 1014.1
20260507003927 17 42 0.0 0.0 0.00 0.00 0.00 1 1014.0
20260507003436 17 45 0.0 0.0 0.00 0.00 0.00 100 1014.0
20260507002934 17 46 0.0 0.0 0.00 0.00 0.00 100 1014.1
20260507002420 17 43 0.0 0.0 0.00 0.00 0.00 100 1014.2
20260507001935 17 39 0.0 0.0 0.00 0.00 0.00 100 1014.2
20260507001505 17 37 0.0 0.0 0.00 0.00 0.00 100 1014.1
20260507001420 17 37 0.0 0.0 0.00 0.00 0.00 100 1014.1
20260507000947 17 41 0.0 0.0 0.00 0.00 0.00 100 1014.1
20260507000446 17 45 0.0 0.0 0.00 0.00 0.00 100 1014.0
20260506235930 17 41 0.0 0.0 0.00 0.00 0.00 100 1013.9
20260506235425 16 41 0.0 0.0 0.00 0.00 0.00 100 1014.0
20260506234940 17 40 0.0 0.0 0.00 0.00 0.00 100 1014.1
20260506234422 17 36 4.8 0.0 0.00 0.00 0.00 100 1014.2
20260506233936 17 38 4.8 0.0 0.00 0.00 0.00 100 1014.2
20260506233453 17 55 3.2 0.0 0.00 0.00 0.00 100 1014.2
20260506232921 17 52 1.6 0.0 0.00 0.00 0.00 100 1014.5
20260506232429 17 50 0.0 0.0 0.00 0.00 0.00 100 1014.7
20260506231923 17 51 0.0 0.0 0.00 0.00 0.00 100 1014.8
20260506231433 17 58 0.0 0.0 0.00 0.00 0.00 100 1014.7
20260506230940 17 56 0.0 0.0 0.00 0.00 0.00 100 1015.0
20260506230454 17 59 0.0 0.0 0.00 0.00 0.00 100 1014.8
20260506225928 17 151 3.2 0.0 0.00 0.00 0.00 100 1014.7
20260506225439 17 146 0.0 0.0 0.00 0.00 0.00 100 1014.9
20260506224948 17 146 0.0 0.0 0.00 0.00 0.00 100 1014.9
20260506224450 17 154 1.6 0.0 0.00 0.00 0.00 100 1015.0
20260506223926 17 150 3.2 0.0 0.00 0.00 0.00 100 1015.1
20260506223424 17 150 1.6 0.0 0.00 0.00 0.00 100 1015.2
20260506222919 17 149 6.4 0.0 0.00 0.00 0.00 100 1015.3
20260506222428 17 186 4.8 0.0 0.00 0.00 0.00 100 1015.2
20260506221925 18 191 0.0 0.0 0.00 0.00 0.00 100 1015.2
20260506221437 17 191 0.0 0.0 0.00 0.00 0.00 100 1015.3
20260506220945 17 190 0.0 0.0 0.00 0.00 0.00 100 1015.3
20260506220426 17 186 1.6 0.0 0.00 0.00 0.00 100 1015.2
20260506215937 17 189 4.8 0.0 0.00 0.00 0.00 100 1015.3
20260506215431 17 191 3.2 0.0 0.00 0.00 0.00 100 1015.4
20260506214919 17 190 8.0 0.0 0.00 0.00 0.00 100 1015.3
20260506214425 17 195 4.8 0.0 0.00 0.00 0.00 100 1015.3
20260506214019 17 199 4.8 0.0 0.00 0.00 0.00 100 1015.4
20260506213436 17 194 0.0 0.0 0.00 0.00 0.00 100 1015.3
20260506212924 17 202 0.0 0.0 0.00 0.00 0.00 100 1015.3
20260506212458 17 197 0.0 0.0 0.00 0.00 0.00 100 1015.3
20260506211950 17 203 0.0 0.0 0.00 0.00 0.00 100 1015.2
20260506211446 17 197 0.0 0.0 0.00 0.00 0.00 100 1015.3
20260506210940 17 197 0.0 0.0 0.00 0.00 0.00 100 1015.3
20260506210438 17 196 0.0 0.0 0.00 0.00 0.00 100 1015.3
20260506205935 17 197 0.0 0.0 0.00 0.00 0.00 100 1015.3
20260506205420 17 201 0.0 0.0 0.00 0.00 0.00 100 1015.3
20260506204950 17 197 0.0 0.0 0.00 0.00 0.00 100 1015.3
20260506204439 17 196 0.0 0.0 0.00 0.00 0.00 100 1015.4
20260506203943 17 194 1.6 0.0 0.00 0.00 0.00 100 1015.3
20260506203451 18 197 1.6 0.0 0.00 0.00 0.00 100 1015.5
20260506202938 18 190 0.0 0.0 0.00 0.00 0.00 100 1015.5
20260506202425 18 194 0.0 0.0 0.00 0.00 0.00 100 1015.5
20260506201938 18 186 0.0 0.0 0.00 0.00 0.00 100 1015.6
20260506201429 18 190 0.0 0.0 0.00 0.00 0.00 100 1015.6
20260506200941 18 196 0.0 0.0 0.00 0.00 0.00 100 1015.6
20260506200443 18 189 0.0 0.0 0.00 0.00 0.00 100 1015.5
20260506200019 18 192 0.0 0.0 0.00 0.00 0.00 100 1015.6
20260506195936 18 192 0.0 0.0 0.00 0.00 0.00 100 1015.6
20260506195448 18 192 0.0 0.0 0.00 0.00 0.00 100 1015.7
20260506194959 18 193 0.0 0.0 0.00 0.00 0.00 100 1015.8
20260506194454 18 190 0.0 0.0 0.00 0.00 0.00 100 1015.9
20260506194004 18 188 6.4 0.0 0.00 0.00 0.00 100 1015.9
20260506193921 18 188 6.4 0.0 0.00 0.00 0.00 100 1015.9
20260506193433 18 188 6.4 0.0 0.00 0.00 0.00 100 1015.9
20260506192928 18 185 4.8 0.0 0.00 0.00 0.00 100 1015.8
20260506192429 18 184 4.8 0.0 0.00 0.00 0.00 100 1016.0
20260506191920 18 183 3.2 0.0 0.00 0.00 0.00 100 1015.8
20260506191436 18 183 3.2 0.0 0.00 0.00 0.00 100 1015.6
20260506191023 18 184 3.2 0.0 0.00 0.00 0.00 100 1015.6
20260506190437 18 184 6.4 0.0 0.00 0.00 0.00 100 1015.5
20260506185934 18 191 3.2 0.0 0.00 0.00 0.00 100 1015.4
20260506185423 18 185 1.6 0.0 0.00 0.00 0.00 100 1015.0
20260506184939 18 185 4.8 0.0 0.00 0.00 0.00 100 1015.0
20260506184427 18 186 3.2 0.0 0.00 0.00 0.00 100 1015.1
20260506183939 18 191 0.0 0.0 0.00 0.00 0.00 100 1015.0
20260506183435 18 192 0.0 0.0 0.00 0.00 0.00 100 1015.0
20260506182925 18 195 3.2 0.0 0.00 0.00 0.00 100 1014.9
20260506182429 18 198 4.8 0.0 0.00 0.00 0.00 100 1014.7
20260506181944 18 196 1.6 0.0 0.00 0.00 0.00 100 1014.6
20260506181437 18 197 3.2 0.0 0.00 0.00 0.00 100 1014.7
20260506180945 18 199 3.2 0.0 0.00 0.00 0.00 99 1014.7
20260506180427 19 197 3.2 0.0 0.00 0.00 0.00 98 1014.7
20260506175926 19 194 3.2 0.0 0.00 0.00 0.00 99 1014.6
20260506175457 19 199 4.8 0.0 0.00 0.00 0.00 99 1014.5
20260506174949 19 198 0.0 0.0 0.00 0.00 0.00 100 1014.5
20260506174440 19 196 0.0 0.0 0.00 0.00 0.00 100 1014.5
20260506173924 19 190 0.0 0.0 0.00 0.00 0.00 100 1014.5
20260506173434 19 196 0.0 0.0 0.00 0.00 0.00 100 1014.4
20260506172922 18 187 3.2 0.0 0.00 0.00 0.00 100 1014.5
20260506172434 19 188 1.6 0.0 0.00 0.00 0.00 100 1014.5
20260506171949 19 189 4.8 0.0 0.00 0.00 0.00 100 1014.5
20260506171423 19 193 3.2 0.0 0.00 0.00 0.00 100 1014.5
20260506170941 19 190 1.6 0.0 0.00 0.00 0.00 100 1014.5
20260506170420 19 189 3.2 0.0 0.00 0.00 0.00 100 1014.4
20260506165942 19 192 4.8 0.0 0.00 0.00 0.00 100 1014.4
20260506165453 19 194 3.2 0.0 0.00 0.00 0.00 100 1014.4
20260506164926 19 192 0.0 0.0 0.00 0.00 0.00 100 1014.4
20260506164441 20 195 0.0 0.0 0.00 0.00 0.00 100 1014.4
20260506163937 20 193 0.0 0.0 0.00 0.00 0.00 100 1014.4
20260506163427 20 197 0.0 0.0 0.00 0.00 0.00 100 1014.5
20260506162938 19 194 0.0 0.0 0.00 0.00 0.00 100 1014.6
20260506162428 20 201 0.0 0.0 0.00 0.00 0.00 100 1014.5
20260506161923 20 200 0.0 0.0 0.00 0.00 0.00 100 1014.6
20260506161429 20 196 0.0 0.0 0.00 0.00 0.00 100 1014.7
20260506160942 20 198 0.0 0.0 0.00 0.00 0.00 100 1014.6
20260506160456 20 189 0.0 0.0 0.00 0.00 0.00 100 1014.7
20260506155927 20 191 0.0 0.0 0.00 0.00 0.00 100 1014.6
20260506155438 20 196 0.0 0.0 0.00 0.00 0.00 100 1014.6
20260506155010 20 191 0.0 0.0 0.00 0.00 0.00 100 1014.7
20260506154419 20 193 0.0 0.0 0.00 0.00 0.00 100 1014.7
20260506153931 20 192 0.0 0.0 0.00 0.00 0.00 100 1014.8
20260506153441 20 191 0.0 0.0 0.00 0.00 0.00 100 1014.7
20260506153014 20 195 0.0 0.0 0.00 0.00 0.00 100 1014.6
20260506152931 20 195 0.0 0.0 0.00 0.00 0.00 100 1014.6
20260506152442 20 197 0.0 0.0 0.00 0.00 0.00 100 1014.7
20260506151936 20 192 0.0 0.0 0.00 0.00 0.00 100 1014.6
20260506151436 20 196 0.0 0.0 0.00 0.00 0.00 100 1014.6
20260506150943 20 194 0.0 0.0 0.00 0.00 0.00 100 1014.7
20260506150449 20 198 0.0 0.0 0.00 0.00 0.00 100 1014.7
20260506145924 20 193 1.6 0.0 0.00 0.00 0.00 100 1014.7
20260506145432 20 201 0.0 0.0 0.00 0.00 0.00 100 1014.7
20260506144941 20 201 0.0 0.0 0.00 0.00 0.00 100 1014.7
20260506144449 20 199 4.8 0.0 0.00 0.00 0.00 100 1014.7
20260506143932 20 196 0.0 0.0 0.00 0.00 0.00 100 1014.7
20260506143423 20 203 0.0 0.0 0.00 0.00 0.00 100 1014.7
20260506142932 20 214 1.6 0.0 0.00 0.00 0.00 100 1014.8
20260506142440 20 193 1.6 0.0 0.00 0.00 0.00 100 1014.8
20260506141924 20 212 1.6 0.0 0.00 0.00 0.00 100 1014.7
20260506141433 20 204 4.8 0.0 0.00 0.00 0.00 100 1014.6
20260506140941 20 199 0.0 0.0 0.00 0.00 0.00 100 1014.7
20260506140420 20 203 3.2 0.0 0.00 0.00 0.00 100 1014.6
20260506135946 21 191 0.0 0.0 0.00 0.00 0.00 100 1014.6
20260506135435 21 201 3.2 0.0 0.00 0.00 0.00 100 1014.4
20260506134925 21 204 4.8 0.0 0.00 0.00 0.00 100 1014.5
20260506134432 20 197 0.0 0.0 0.00 0.00 0.00 100 1014.6
20260506133954 20 191 1.6 0.0 0.00 0.00 0.00 100 1014.6
20260506133451 20 200 1.6 0.0 0.00 0.00 0.00 100 1014.6
20260506132921 20 202 3.2 0.0 0.00 0.00 0.00 100 1014.6
20260506132430 20 203 6.4 0.0 0.00 0.00 0.00 100 1014.4
20260506131940 21 201 6.4 0.0 0.00 0.00 0.00 100 1014.4
20260506131431 21 202 1.6 0.0 0.00 0.00 0.00 100 1014.5
20260506130941 21 192 0.0 0.0 0.00 0.00 0.00 100 1014.6
20260506130433 21 199 1.6 0.0 0.00 0.00 0.00 100 1014.5
20260506125944 21 204 0.0 0.0 0.00 0.00 0.00 100 1014.5
20260506125453 21 208 0.0 0.0 0.00 0.00 0.00 100 1014.4
20260506124944 21 206 0.0 0.0 0.00 0.00 0.00 100 1014.5
20260506124442 21 209 0.0 0.0 0.00 0.00 0.00 100 1014.5
20260506123934 21 216 0.0 0.0 0.00 0.00 0.00 100 1014.4
20260506123426 21 216 0.0 0.0 0.00 0.00 0.00 100 1014.5